ONEWEB-0301, 49090

Orbit data source: Space-Track

ONEWEB-0301, 49090 is a payload satellite owned by One Web (NAA) (UK) in LEO that was launched on Sat, 21 Aug 2021 UTC via a SOYUZ-2-1B launch vehicle from the Tyuratam Missile And Space Complex (TTMTR). Payload-class satellites include a variety of spacecraft equipped with specific instruments for various scientific and technological missions. These include communications satellites like Starlink; space stations such as the ISS; scientific satellites like the Hubble; Earth observation satellites from companies like Planet Labs, Umbra, and HawkEye 360; GPS; miniature CubeSats for education and research; and military/defense satellites.

Loading next visibility...
Identifier
49090, 2021-075R
Orbit
LEO
Country
Flag of UKUK
Related business
Manufacturer
One Web
Mission
Operational Commercial Communications
Bus & Motor
ARROW, Unknown motor
Mass
148 kg wet, ~140 kg dry
Launch date (UTC)
2021-08-21 (5 years ago)
Launch vehicle
SOYUZ-2-1B
Launch site
Tyuratam Missile And Space Complex (TTMTR)
Object type
Payload
Rocket body
Debris
Shape & HBR
Trap Box + 2 Pan, 6.7 m
Radar Cross Section
3.464 m², Large (>1 m²)

Expand to show TLE details & history
Last TLE update: 1 day ago

TLE from 1 day ago
0 ONEWEB-0301
1 49090U 21075R   26175.17827494  .00000178  00000-0  46017-3 0  9997
2 49090  87.8949 349.2641 0001586  84.1531 275.9779 13.12440704235484
Epoch: 2026-06-24T04:16Z
TLE epoch observation values (Epoch: 2026-06-24T04:16:42.954Z)
Latitude
0.00003°
Longitude
12.74591°
Altitude
1,216.498 km
Speed
7.246 km/s
True Right ascension
23h 17m 03s
True Declination
0° 00' 00"
Sunlit
Object was in daylight at epoch
Visualization orbit readout
Latitude
Unknown
Longitude
Unknown
Altitude
Unknown
Speed
Unknown
Apparent Right ascension
Unknown
Apparent Declination
Unknown
Sunlit
N/A
Visualization observer readout
Local Sidereal Time
15:26:00
Azimuth
Unknown
Elevation
Unknown
Doppler factor
Unknown
Orbital elements
Apogee altitude
1,212.052 km
Perigee altitude
1,209.645 km
Semi-major axis
7,588.986 km
Eccentricity
0.00016
Inclination
87.8949°
RAAN
349.2641°
Arg. of periapsis
84.1531°
True anomaly
275.95982°
Mean anomaly
275.9779°
Eccentric anomaly
275.96886°
Mean motion
3.28297 °/min
Orbital period
109.66 mins
BSTAR
0.00046017
Loading maneuver chart data...
Computing Atmospheric mass density...
Loading historical data...
Loading historical data...
Loading historical data...
Loading historical data...
Loading historical data...
Loading historical data...
Loading historical data...

Documentation

Showing up to 5 results
|